| time (UTC) | temp F | wind direction | speed MPH | gust MPH | rain 1hr in | rain 24hr in | rain mn in | humidity % | barometer mb |
| 20260505193120 | 77 | 0 | 0.0 | 0.0 | 0.00 | 0.00 | 0.00 | 83 | 951.0 |
| 20260505192056 | 76 | 0 | 0.0 | 0.0 | 0.00 | 0.00 | 0.00 | 85 | 951.0 |
| 20260505191032 | 76 | 0 | 0.0 | 0.0 | 0.00 | 0.00 | 0.00 | 87 | 951.0 |
| 20260505190008 | 75 | 0 | 0.0 | 0.0 | 0.00 | 0.00 | 0.00 | 89 | 951.0 |
| 20260505184944 | 75 | 0 | 0.0 | 0.0 | 0.00 | 0.00 | 0.00 | 93 | 951.0 |
| 20260505183919 | 75 | 0 | 0.0 | 0.0 | 0.00 | 0.00 | 0.00 | 92 | 951.0 |
| 20260505182855 | 75 | 0 | 0.0 | 0.0 | 0.00 | 0.00 | 0.00 | 91 | 951.0 |
| 20260505181831 | 75 | 0 | 0.0 | 0.0 | 0.00 | 0.00 | 0.00 | 85 | 952.0 |
| 20260505180807 | 75 | 0 | 0.0 | 0.0 | 0.00 | 0.00 | 0.00 | 85 | 952.0 |
| 20260505175743 | 75 | 0 | 0.0 | 0.0 | 0.00 | 0.00 | 0.00 | 85 | 952.0 |
| 20260505174719 | 75 | 0 | 0.0 | 0.0 | 0.00 | 0.00 | 0.00 | 93 | 952.0 |
| 20260505173655 | 75 | 0 | 0.0 | 0.0 | 0.00 | 0.00 | 0.00 | 92 | 952.0 |
| 20260505172630 | 76 | 0 | 0.0 | 0.0 | 0.00 | 0.00 | 0.00 | 95 | 952.0 |
| 20260505171606 | 76 | 0 | 0.0 | 0.0 | 0.00 | 0.00 | 0.00 | 99 | 953.0 |
| 20260505170542 | 77 | 0 | 0.0 | 0.0 | 0.00 | 0.00 | 0.00 | 95 | 953.0 |
| 20260505165518 | 77 | 0 | 0.0 | 0.0 | 0.00 | 0.00 | 0.00 | 95 | 953.0 |
| 20260505164454 | 80 | 0 | 0.0 | 0.0 | 0.00 | 0.00 | 0.00 | 79 | 953.0 |
| 20260505163430 | 84 | 0 | 0.0 | 0.0 | 0.00 | 0.00 | 0.00 | 64 | 953.0 |
| 20260505162405 | 83 | 0 | 0.0 | 0.0 | 0.00 | 0.00 | 0.00 | 64 | 953.0 |
| 20260505161341 | 82 | 0 | 0.0 | 0.0 | 0.00 | 0.00 | 0.00 | 66 | 953.0 |
| 20260505160317 | 82 | 0 | 0.0 | 0.0 | 0.00 | 0.00 | 0.00 | 67 | 953.0 |
| 20260505153204 | 84 | 0 | 0.0 | 0.0 | 0.00 | 0.00 | 0.00 | 64 | 953.0 |
| 20260505152140 | 84 | 0 | 0.0 | 0.0 | 0.00 | 0.00 | 0.00 | 63 | 953.0 |
| 20260505151116 | 84 | 0 | 0.0 | 0.0 | 0.00 | 0.00 | 0.00 | 64 | 952.0 |
| 20260505124527 | 85 | 0 | 0.0 | 0.0 | 0.00 | 0.00 | 0.00 | 63 | 950.0 |
| 20260505123503 | 85 | 0 | 0.0 | 0.0 | 0.00 | 0.00 | 0.00 | 62 | 950.0 |
| 20260505122434 | 85 | 0 | 0.0 | 0.0 | 0.00 | 0.00 | 0.00 | 61 | 950.0 |
| 20260505121408 | 85 | 0 | 0.0 | 0.0 | 0.00 | 0.00 | 0.00 | 61 | 950.0 |
| 20260505120344 | 86 | 0 | 0.0 | 0.0 | 0.00 | 0.00 | 0.00 | 60 | 949.0 |
| 20260505115319 | 87 | 0 | 0.0 | 0.0 | 0.00 | 0.00 | 0.00 | 58 | 949.0 |
| 20260505114255 | 87 | 0 | 0.0 | 0.0 | 0.00 | 0.00 | 0.00 | 57 | 949.0 |
| 20260505113231 | 87 | 0 | 0.0 | 0.0 | 0.00 | 0.00 | 0.00 | 56 | 949.0 |
| 20260505112207 | 87 | 0 | 0.0 | 0.0 | 0.00 | 0.00 | 0.00 | 55 | 949.0 |
| 20260505111143 | 88 | 0 | 0.0 | 0.0 | 0.00 | 0.00 | 0.00 | 53 | 949.0 |
| 20260505110119 | 88 | 0 | 0.0 | 0.0 | 0.00 | 0.00 | 0.00 | 53 | 949.0 |
| 20260505101942 | 91 | 0 | 0.0 | 0.0 | 0.00 | 0.00 | 0.00 | 50 | 949.0 |
| 20260505100918 | 90 | 0 | 0.0 | 0.0 | 0.00 | 0.00 | 0.00 | 50 | 949.0 |
| 20260505095854 | 90 | 0 | 0.0 | 0.0 | 0.00 | 0.00 | 0.00 | 50 | 949.0 |
| 20260505094830 | 91 | 0 | 0.0 | 0.0 | 0.00 | 0.00 | 0.00 | 50 | 949.0 |
| 20260505093805 | 91 | 0 | 0.0 | 0.0 | 0.00 | 0.00 | 0.00 | 48 | 949.0 |
| 20260505092741 | 91 | 0 | 0.0 | 0.0 | 0.00 | 0.00 | 0.00 | 49 | 949.0 |
| 20260505091717 | 92 | 0 | 0.0 | 0.0 | 0.00 | 0.00 | 0.00 | 48 | 949.0 |
| 20260505090653 | 91 | 0 | 0.0 | 0.0 | 0.00 | 0.00 | 0.00 | 48 | 949.0 |
| 20260505085629 | 91 | 0 | 0.0 | 0.0 | 0.00 | 0.00 | 0.00 | 48 | 949.0 |
| 20260505084604 | 91 | 0 | 0.0 | 0.0 | 0.00 | 0.00 | 0.00 | 48 | 949.0 |
| 20260505083540 | 91 | 0 | 0.0 | 0.0 | 0.00 | 0.00 | 0.00 | 48 | 949.0 |
| 20260505082516 | 90 | 0 | 0.0 | 0.0 | 0.00 | 0.00 | 0.00 | 49 | 950.0 |
| 20260505081452 | 91 | 0 | 0.0 | 0.0 | 0.00 | 0.00 | 0.00 | 49 | 950.0 |
| 20260505080428 | 91 | 0 | 0.0 | 0.0 | 0.00 | 0.00 | 0.00 | 48 | 950.0 |
| 20260505075401 | 92 | 0 | 0.0 | 0.0 | 0.00 | 0.00 | 0.00 | 47 | 950.0 |
| 20260505074330 | 93 | 0 | 0.0 | 0.0 | 0.00 | 0.00 | 0.00 | 46 | 950.0 |
| 20260505073306 | 94 | 0 | 0.0 | 0.0 | 0.00 | 0.00 | 0.00 | 45 | 950.0 |
| 20260505072242 | 93 | 0 | 0.0 | 0.0 | 0.00 | 0.00 | 0.00 | 47 | 951.0 |
| 20260505071218 | 93 | 0 | 0.0 | 0.0 | 0.00 | 0.00 | 0.00 | 47 | 951.0 |
| 20260505070148 | 93 | 0 | 0.0 | 0.0 | 0.00 | 0.00 | 0.00 | 46 | 951.0 |
| 20260505065122 | 92 | 0 | 0.0 | 0.0 | 0.00 | 0.00 | 0.00 | 48 | 951.0 |
| 20260505064054 | 93 | 0 | 0.0 | 0.0 | 0.00 | 0.00 | 0.00 | 46 | 951.0 |
| 20260505063023 | 94 | 0 | 0.0 | 0.0 | 0.00 | 0.00 | 0.00 | 46 | 952.0 |
| 20260505061956 | 93 | 0 | 0.0 | 0.0 | 0.00 | 0.00 | 0.00 | 47 | 952.0 |
| 20260505060931 | 95 | 0 | 0.0 | 0.0 | 0.00 | 0.00 | 0.00 | 45 | 952.0 |
| 20260505055907 | 92 | 0 | 0.0 | 0.0 | 0.00 | 0.00 | 0.00 | 49 | 953.0 |
| 20260505054842 | 91 | 0 | 0.0 | 0.0 | 0.00 | 0.00 | 0.00 | 52 | 953.0 |
| 20260505053811 | 87 | 0 | 0.0 | 0.0 | 0.00 | 0.00 | 0.00 | 58 | 953.0 |
| 20260505052745 | 88 | 0 | 0.0 | 0.0 | 0.00 | 0.00 | 0.00 | 57 | 954.0 |
| 20260505051721 | 89 | 0 | 0.0 | 0.0 | 0.00 | 0.00 | 0.00 | 56 | 954.0 |
| 20260505050657 | 87 | 0 | 0.0 | 0.0 | 0.00 | 0.00 | 0.00 | 58 | 954.0 |
| 20260505041444 | 90 | 0 | 0.0 | 0.0 | 0.00 | 0.00 | 0.00 | 55 | 954.0 |
| 20260505040420 | 92 | 0 | 0.0 | 0.0 | 0.00 | 0.00 | 0.00 | 53 | 954.0 |
| 20260505035356 | 89 | 0 | 0.0 | 0.0 | 0.00 | 0.00 | 0.00 | 55 | 955.0 |
| 20260505034332 | 89 | 0 | 0.0 | 0.0 | 0.00 | 0.00 | 0.00 | 56 | 955.0 |
| 20260505033308 | 86 | 0 | 0.0 | 0.0 | 0.00 | 0.00 | 0.00 | 60 | 955.0 |
| 20260505032244 | 86 | 0 | 0.0 | 0.0 | 0.00 | 0.00 | 0.00 | 63 | 955.0 |
| 20260505031219 | 85 | 0 | 0.0 | 0.0 | 0.00 | 0.00 | 0.00 | 64 | 955.0 |
| 20260505030156 | 84 | 0 | 0.0 | 0.0 | 0.00 | 0.00 | 0.00 | 66 | 955.0 |
| 20260505025131 | 83 | 0 | 0.0 | 0.0 | 0.00 | 0.00 | 0.00 | 67 | 955.0 |
| 20260505024107 | 83 | 0 | 0.0 | 0.0 | 0.00 | 0.00 | 0.00 | 67 | 955.0 |
| 20260505023043 | 83 | 0 | 0.0 | 0.0 | 0.00 | 0.00 | 0.00 | 68 | 955.0 |
| 20260505022019 | 85 | 0 | 0.0 | 0.0 | 0.00 | 0.00 | 0.00 | 66 | 955.0 |
| 20260505020955 | 85 | 0 | 0.0 | 0.0 | 0.00 | 0.00 | 0.00 | 69 | 955.0 |
| 20260505015931 | 85 | 0 | 0.0 | 0.0 | 0.00 | 0.00 | 0.00 | 67 | 955.0 |
| 20260505014907 | 86 | 0 | 0.0 | 0.0 | 0.00 | 0.00 | 0.00 | 66 | 955.0 |
| 20260505013843 | 86 | 0 | 0.0 | 0.0 | 0.00 | 0.00 | 0.00 | 67 | 955.0 |
| 20260505012818 | 84 | 0 | 0.0 | 0.0 | 0.00 | 0.00 | 0.00 | 72 | 955.0 |
| 20260505011754 | 83 | 0 | 0.0 | 0.0 | 0.00 | 0.00 | 0.00 | 74 | 955.0 |
| 20260505010730 | 81 | 0 | 0.0 | 0.0 | 0.00 | 0.00 | 0.00 | 75 | 955.0 |
| 20260505005706 | 80 | 0 | 0.0 | 0.0 | 0.00 | 0.00 | 0.00 | 79 | 955.0 |
| 20260505004641 | 80 | 0 | 0.0 | 0.0 | 0.00 | 0.00 | 0.00 | 80 | 954.0 |
| 20260505003617 | 80 | 0 | 0.0 | 0.0 | 0.00 | 0.00 | 0.00 | 81 | 954.0 |
| 20260505002553 | 79 | 0 | 0.0 | 0.0 | 0.00 | 0.00 | 0.00 | 83 | 954.0 |
| 20260505001528 | 79 | 0 | 0.0 | 0.0 | 0.00 | 0.00 | 0.00 | 84 | 954.0 |
| 20260505000449 | 78 | 0 | 0.0 | 0.0 | 0.00 | 0.00 | 0.00 | 82 | 954.0 |
| 20260504235424 | 78 | 0 | 0.0 | 0.0 | 0.00 | 0.00 | 0.00 | 82 | 954.0 |
| 20260504234400 | 78 | 0 | 0.0 | 0.0 | 0.00 | 0.00 | 0.00 | 79 | 954.0 |
| 20260504233336 | 78 | 0 | 0.0 | 0.0 | 0.00 | 0.00 | 0.00 | 79 | 954.0 |
| 20260504232312 | 77 | 0 | 0.0 | 0.0 | 0.00 | 0.00 | 0.00 | 81 | 954.0 |
| 20260504231248 | 77 | 0 | 0.0 | 0.0 | 0.00 | 0.00 | 0.00 | 82 | 953.0 |
| 20260504230224 | 76 | 0 | 0.0 | 0.0 | 0.00 | 0.00 | 0.00 | 84 | 953.0 |
| 20260504225202 | 76 | 0 | 0.0 | 0.0 | 0.00 | 0.00 | 0.00 | 86 | 953.0 |
| 20260504224136 | 76 | 0 | 0.0 | 0.0 | 0.00 | 0.00 | 0.00 | 84 | 953.0 |
| 20260504223111 | 76 | 0 | 0.0 | 0.0 | 0.00 | 0.00 | 0.00 | 82 | 953.0 |
| 20260504222037 | 77 | 0 | 0.0 | 0.0 | 0.00 | 0.00 | 0.00 | 79 | 952.0 |
| 20260504221013 | 77 | 0 | 0.0 | 0.0 | 0.00 | 0.00 | 0.00 | 78 | 953.0 |
| 20260504215949 | 77 | 0 | 0.0 | 0.0 | 0.00 | 0.00 | 0.00 | 78 | 953.0 |
| 20260504214925 | 78 | 0 | 0.0 | 0.0 | 0.00 | 0.00 | 0.00 | 75 | 952.0 |
| 20260504213900 | 78 | 0 | 0.0 | 0.0 | 0.00 | 0.00 | 0.00 | 78 | 952.0 |
| 20260504212836 | 78 | 0 | 0.0 | 0.0 | 0.00 | 0.00 | 0.00 | 79 | 952.0 |
| 20260504211812 | 76 | 0 | 0.0 | 0.0 | 0.00 | 0.00 | 0.00 | 81 | 952.0 |
| 20260504210748 | 76 | 0 | 0.0 | 0.0 | 0.00 | 0.00 | 0.00 | 84 | 953.0 |
| 20260504205724 | 76 | 0 | 0.0 | 0.0 | 0.00 | 0.00 | 0.00 | 79 | 953.0 |
| 20260504204659 | 78 | 0 | 0.0 | 0.0 | 0.00 | 0.00 | 0.00 | 74 | 952.0 |
| 20260504203635 | 77 | 0 | 0.0 | 0.0 | 0.00 | 0.00 | 0.00 | 79 | 953.0 |
| 20260504202611 | 77 | 0 | 0.0 | 0.0 | 0.00 | 0.00 | 0.00 | 78 | 953.0 |
| 20260504201547 | 77 | 0 | 0.0 | 0.0 | 0.00 | 0.00 | 0.00 | 79 | 953.0 |
| 20260504200523 | 76 | 0 | 0.0 | 0.0 | 0.00 | 0.00 | 0.00 | 77 | 953.0 |
| 20260504195459 | 76 | 0 | 0.0 | 0.0 | 0.00 | 0.00 | 0.00 | 77 | 953.0 |
| 20260504194435 | 76 | 0 | 0.0 | 0.0 | 0.00 | 0.00 | 0.00 | 79 | 953.0 |